FW9001 Weather Reports


time (UTC)temp
C
wind
direction
speed
KPH
gust
KPH
rain 1hr
cm
rain 24hr
cm
rain mn
cm
humidity
%
barometer
mb
20260906090039 19 34 6.4 8.0 0.00 0.00 0.00 97 1017.5
20260906080034 20 25 8.0 8.0 0.00 0.00 0.00 97 1017.5
20260906063037 20 29 4.8 8.0 0.00 0.00 0.00 97 1017.4
20260906061534 20 29 4.8 9.7 0.00 0.00 0.00 96 1017.4
20260906053041 21 63 6.4 9.7 0.00 0.00 0.00 95 1017.0
20260905221535 24 346 24.1 35.4 0.00 0.00 0.00 86 1014.6
20260905204536 25 346 22.5 29.0 0.00 0.00 0.00 83 1014.2
20260905193038 28 1 19.3 29.0 0.00 0.00 0.00 78 1014.5
20260905183033 28 25 14.5 29.0 0.00 0.00 0.00 76 1014.4
20260905180037 28 21 11.3 20.9 0.00 0.00 0.00 79 1014.5
20260905174533 28 32 9.7 20.9 0.00 0.00 0.00 83 1014.4
20260905171539 28 356 9.7 14.5 0.00 0.00 0.00 85 1014.7
20260905170035 28 44 12.9 19.3 0.00 0.00 0.00 84 1014.7
20260905163035 27 56 11.3 17.7 0.00 0.00 0.00 89 1014.9
20260905161537 27 30 12.9 16.1 0.00 0.00 0.00 88 1014.9
20260905153050 26 34 11.3 14.5 0.00 0.00 0.00 89 1014.8
20260905151539 26 39 11.3 14.5 0.00 0.00 0.00 92 1014.7
20260905144538 26 26 8.0 12.9 0.00 0.00 0.00 94 1014.3
20260905140034 26 23 1.6 3.2 0.00 0.00 0.00 94 1014.4
20260905131553 24 63 4.8 4.8 0.00 0.00 0.00 99 1014.1
20260905130040 24 51 3.2 6.4 0.00 0.00 0.00 99 1014.0
20260905124534 24 0 0.0 1.6 0.00 0.00 0.00 99 1014.0
20260905121539 23 0 0.0 3.2 0.00 0.00 0.00 99 1013.6
20260905120041 23 0 0.0 1.6 0.00 0.00 0.00 98 1013.4
20260905113035 23 0 1.6 4.8 0.00 0.00 0.00 99 1013.1
20260905111557 23 169 1.6 3.2 0.00 0.00 0.00 99 1013.0
20260905110032 23 237 3.2 4.8 0.00 0.00 0.00 99 1013.0
20260905103037 23 0 0.0 0.0 0.00 0.00 0.00 99 1013.3
20260905101536 23 0 0.0 0.0 0.00 0.00 0.00 99 1013.1